Station Historical Data
Daily Summary for April 22, 2012 Units:  English    Metric   Both
« Previous Day
Next Day »
Daily Weekly Monthly Yearly Custom
  High: Low: Average:
Temperature: 61.3 °F 39.9 °F 49.6 °F
Dew Point: 47.4 °F 38.7 °F 42.8 °F
Humidity: 96% 54% 79%
Wind Speed: 19.0mph 1.0mph 5.7mph
Wind Gust: 20.0mph - -
Wind- - WNW
Pressure: 29.92 in 29.79 in -
Precipitation: 0.05 in    
Historical Graphs
 
 
Tabular Data for April 22, 2012
Time Temperature Dew Point Pressure Wind Wind Speed Wind Gust Humidity Rainfall Rate (Hourly) Conditions
00:00 47.8 °F 44.1 °F 29.90 in NNE 6.0 mph 7.0 mph 87% 0.00 in
00:01 47.8 °F 44.1 °F 29.90 in NNE 4.0 mph 7.0 mph 87% 0.00 in
00:03 47.8 °F 44.1 °F 29.90 in NNE 6.0 mph 8.0 mph 87% 0.00 in
00:08 47.8 °F 43.8 °F 29.90 in NNW 6.0 mph 9.0 mph 86% 0.00 in
00:13 47.8 °F 43.8 °F 29.90 in NNW 5.0 mph 7.0 mph 86% 0.00 in
00:18 47.8 °F 43.8 °F 29.90 in NNE 5.0 mph 11.0 mph 86% 0.00 in
00:23 47.8 °F 43.8 °F 29.90 in NNW 3.0 mph 8.0 mph 86% 0.00 in
00:28 47.6 °F 43.9 °F 29.90 in NNW 4.0 mph 6.0 mph 87% 0.00 in
00:33 47.5 °F 43.5 °F 29.89 in NNW 3.0 mph 7.0 mph 86% 0.00 in
00:38 47.1 °F 43.4 °F 29.89 in North 4.0 mph 6.0 mph 87% 0.00 in
00:43 46.9 °F 43.2 °F 29.89 in NNE 5.0 mph 9.0 mph 87% 0.00 in
00:48 46.7 °F 43.0 °F 29.90 in North 4.0 mph 6.0 mph 87% 0.00 in
00:53 46.3 °F 43.0 °F 29.89 in NNW 3.0 mph 5.0 mph 88% 0.00 in
00:58 46.1 °F 43.0 °F 29.90 in NW 3.0 mph 6.0 mph 89% 0.00 in
01:03 45.9 °F 42.8 °F 29.89 in North 2.0 mph 6.0 mph 89% 0.00 in
01:08 45.7 °F 42.7 °F 29.90 in NW 5.0 mph 5.0 mph 89% 0.00 in
01:13 45.4 °F 42.6 °F 29.89 in NW 2.0 mph 5.0 mph 90% 0.00 in
01:18 45.1 °F 42.3 °F 29.89 in NNW 4.0 mph 4.0 mph 90% 0.00 in
01:23 44.8 °F 42.3 °F 29.89 in NNW 4.0 mph 4.0 mph 91% 0.00 in
01:28 44.7 °F 42.2 °F 29.89 in NNW 3.0 mph 6.0 mph 91% 0.00 in
01:33 44.6 °F 42.4 °F 29.89 in NNW 4.0 mph 6.0 mph 92% 0.00 in
01:38 44.5 °F 42.3 °F 29.89 in NW 3.0 mph 4.0 mph 92% 0.00 in
01:43 44.5 °F 42.3 °F 29.89 in NW 7.0 mph 7.0 mph 92% 0.00 in
01:48 44.5 °F 42.3 °F 29.89 in NNW 4.0 mph 6.0 mph 92% 0.00 in
01:53 44.5 °F 42.3 °F 29.89 in NNW 3.0 mph 9.0 mph 92% 0.00 in
01:58 44.5 °F 42.3 °F 29.88 in NNW 4.0 mph 7.0 mph 92% 0.00 in
02:03 44.5 °F 42.0 °F 29.88 in NNW 6.0 mph 7.0 mph 91% 0.00 in
02:08 44.5 °F 42.0 °F 29.88 in NNW 4.0 mph 7.0 mph 91% 0.00 in
02:13 44.3 °F 41.8 °F 29.88 in NNW 5.0 mph 6.0 mph 91% 0.00 in
02:19 44.1 °F 41.7 °F 29.88 in NNW 5.0 mph 5.0 mph 91% 0.00 in
02:24 43.9 °F 41.5 °F 29.87 in NNW 4.0 mph 5.0 mph 91% 0.00 in
02:28 43.8 °F 41.3 °F 29.87 in NW 3.0 mph 4.0 mph 91% 0.00 in
02:34 43.7 °F 41.5 °F 29.87 in NW 4.0 mph 5.0 mph 92% 0.00 in
02:39 43.5 °F 41.3 °F 29.87 in NNW 3.0 mph 4.0 mph 92% 0.00 in
02:44 43.3 °F 41.1 °F 29.87 in NW 3.0 mph 5.0 mph 92% 0.00 in
02:49 43.1 °F 40.9 °F 29.87 in NW 4.0 mph 5.0 mph 92% 0.00 in
02:54 43.1 °F 41.2 °F 29.87 in NNW 2.0 mph 4.0 mph 93% 0.00 in
02:59 43.0 °F 41.1 °F 29.87 in NNW 3.0 mph 3.0 mph 93% 0.00 in
03:04 42.9 °F 41.0 °F 29.87 in NW 3.0 mph 5.0 mph 93% 0.00 in
03:09 42.9 °F 41.3 °F 29.86 in NW 3.0 mph 6.0 mph 94% 0.00 in
03:14 43.1 °F 41.5 °F 29.86 in NW 5.0 mph 7.0 mph 94% 0.00 in
03:19 43.2 °F 41.6 °F 29.86 in NNW 4.0 mph 6.0 mph 94% 0.00 in
03:24 43.3 °F 41.7 °F 29.86 in NNW 5.0 mph 6.0 mph 94% 0.00 in
03:29 43.3 °F 41.7 °F 29.86 in North 5.0 mph 7.0 mph 94% 0.00 in
03:34 43.2 °F 41.6 °F 29.86 in NNW 4.0 mph 7.0 mph 94% 0.00 in
03:39 43.3 °F 41.7 °F 29.86 in NNW 6.0 mph 7.0 mph 94% 0.00 in
03:44 43.2 °F 41.6 °F 29.86 in NW 4.0 mph 6.0 mph 94% 0.00 in
03:49 43.1 °F 41.5 °F 29.85 in NNW 4.0 mph 7.0 mph 94% 0.00 in
03:54 43.1 °F 41.5 °F 29.86 in NW 3.0 mph 7.0 mph 94% 0.00 in
03:59 43.0 °F 41.4 °F 29.85 in NW 1.0 mph 4.0 mph 94% 0.00 in
04:04 42.8 °F 41.2 °F 29.85 in NNW 2.0 mph 4.0 mph 94% 0.00 in
04:09 42.7 °F 41.1 °F 29.85 in NNW 3.0 mph 4.0 mph 94% 0.00 in
04:14 42.5 °F 40.9 °F 29.86 in NNW 3.0 mph 4.0 mph 94% 0.00 in
04:20 42.4 °F 40.8 °F 29.85 in NW 3.0 mph 3.0 mph 94% 0.00 in
04:24 42.2 °F 40.6 °F 29.86 in NW 1.0 mph 3.0 mph 94% 0.00 in
04:30 42.1 °F 40.5 °F 29.86 in NW 1.0 mph 3.0 mph 94% 0.00 in
04:35 41.9 °F 40.3 °F 29.86 in NNW 2.0 mph 2.0 mph 94% 0.00 in
04:40 41.8 °F 40.2 °F 29.86 in NW 2.0 mph 3.0 mph 94% 0.00 in
04:45 41.7 °F 40.1 °F 29.86 in NW 2.0 mph 4.0 mph 94% 0.00 in
04:50 41.7 °F 40.4 °F 29.86 in North 2.0 mph 4.0 mph 95% 0.00 in
04:55 41.7 °F 40.4 °F 29.86 in NNW 4.0 mph 5.0 mph 95% 0.00 in
05:00 41.8 °F 40.2 °F 29.86 in NNW 3.0 mph 6.0 mph 94% 0.00 in
05:05 41.9 °F 40.3 °F 29.85 in NW 4.0 mph 5.0 mph 94% 0.00 in
05:10 41.9 °F 40.3 °F 29.85 in NW 3.0 mph 5.0 mph 94% 0.00 in
05:11 41.9 °F 40.3 °F 29.85 in NW 5.0 mph 5.0 mph 94% 0.00 in
05:16 41.8 °F 40.2 °F 29.85 in NNW 5.0 mph 6.0 mph 94% 0.00 in
05:21 41.8 °F 40.2 °F 29.85 in NNW 3.0 mph 5.0 mph 94% 0.00 in
05:26 41.7 °F 40.1 °F 29.85 in NW 2.0 mph 4.0 mph 94% 0.00 in
05:31 41.6 °F 40.0 °F 29.85 in NNW 3.0 mph 4.0 mph 94% 0.00 in
05:36 41.5 °F 39.9 °F 29.85 in NNW 3.0 mph 5.0 mph 94% 0.00 in
05:41 41.3 °F 39.7 °F 29.86 in NNW 3.0 mph 4.0 mph 94% 0.00 in
05:46 41.3 °F 39.7 °F 29.85 in NNW 2.0 mph 3.0 mph 94% 0.00 in
05:51 41.2 °F 39.9 °F 29.85 in NW 2.0 mph 5.0 mph 95% 0.00 in
05:56 41.1 °F 39.8 °F 29.85 in NNW 2.0 mph 3.0 mph 95% 0.00 in
06:01 41.0 °F 39.7 °F 29.85 in NNW 1.0 mph 4.0 mph 95% 0.00 in
06:06 40.9 °F 39.6 °F 29.85 in NNW 2.0 mph 4.0 mph 95% 0.00 in
06:11 40.9 °F 39.6 °F 29.86 in NNW 3.0 mph 7.0 mph 95% 0.00 in
06:16 40.9 °F 39.6 °F 29.86 in NW 3.0 mph 4.0 mph 95% 0.00 in
06:21 40.9 °F 39.6 °F 29.86 in NW 3.0 mph 5.0 mph 95% 0.00 in
06:26 40.8 °F 39.5 °F 29.87 in NW 2.0 mph 4.0 mph 95% 0.00 in
06:31 40.7 °F 39.4 °F 29.87 in NW 4.0 mph 5.0 mph 95% 0.00 in
06:36 40.5 °F 39.2 °F 29.86 in NW 4.0 mph 4.0 mph 95% 0.00 in
06:41 40.4 °F 39.1 °F 29.86 in NW 4.0 mph 5.0 mph 95% 0.00 in
06:46 40.4 °F 39.1 °F 29.86 in NNW 4.0 mph 5.0 mph 95% 0.00 in
06:52 40.3 °F 39.0 °F 29.86 in NNW 2.0 mph 5.0 mph 95% 0.00 in
06:57 40.1 °F 39.0 °F 29.86 in NW 2.0 mph 4.0 mph 96% 0.00 in
07:02 40.0 °F 38.7 °F 29.86 in NNW 2.0 mph 4.0 mph 95% 0.00 in
07:07 40.0 °F 39.0 °F 29.86 in NW 2.0 mph 4.0 mph 96% 0.00 in
07:12 40.0 °F 39.0 °F 29.86 in NNW 3.0 mph 6.0 mph 96% 0.00 in
07:17 40.0 °F 39.0 °F 29.86 in NW 3.0 mph 5.0 mph 96% 0.00 in
07:22 40.0 °F 39.0 °F 29.86 in NNW 2.0 mph 4.0 mph 96% 0.00 in
07:27 40.0 °F 39.0 °F 29.86 in WNW 1.0 mph 3.0 mph 96% 0.00 in
07:32 40.0 °F 39.0 °F 29.86 in NNW 2.0 mph 4.0 mph 96% 0.00 in
07:37 39.9 °F 38.8 °F 29.87 in North 4.0 mph 4.0 mph 96% 0.00 in
07:42 40.1 °F 39.0 °F 29.87 in NW 2.0 mph 3.0 mph 96% 0.00 in
07:47 40.5 °F 39.5 °F 29.87 in NNW 4.0 mph 6.0 mph 96% 0.00 in
07:52 40.8 °F 39.8 °F 29.87 in NW 4.0 mph 7.0 mph 96% 0.00 in
07:57 41.0 °F 40.0 °F 29.87 in NNW 3.0 mph 7.0 mph 96% 0.00 in
08:02 41.2 °F 40.2 °F 29.87 in NW 6.0 mph 6.0 mph 96% 0.00 in
08:07 41.3 °F 40.2 °F 29.87 in North 5.0 mph 8.0 mph 96% 0.00 in
08:12 41.4 °F 40.3 °F 29.87 in North 6.0 mph 12.0 mph 96% 0.00 in
08:17 41.7 °F 40.7 °F 29.87 in North 4.0 mph 7.0 mph 96% 0.00 in
08:22 41.8 °F 40.8 °F 29.87 in NW 4.0 mph 12.0 mph 96% 0.00 in
08:27 42.0 °F 40.9 °F 29.87 in NNW 8.0 mph 8.0 mph 96% 0.00 in
08:32 42.2 °F 41.1 °F 29.87 in NW 4.0 mph 9.0 mph 96% 0.00 in
08:37 42.4 °F 41.3 °F 29.87 in North 5.0 mph 8.0 mph 96% 0.00 in
08:42 42.8 °F 41.7 °F 29.87 in NNW 7.0 mph 7.0 mph 96% 0.00 in
08:47 42.8 °F 41.5 °F 29.87 in NNW 3.0 mph 11.0 mph 95% 0.00 in
08:52 42.9 °F 41.6 °F 29.87 in North 5.0 mph 9.0 mph 95% 0.00 in
08:57 43.3 °F 42.0 °F 29.87 in NNE 5.0 mph 9.0 mph 95% 0.00 in
09:03 43.5 °F 41.9 °F 29.86 in NE 5.0 mph 7.0 mph 94% 0.00 in
09:08 44.0 °F 42.4 °F 29.87 in North 9.0 mph 10.0 mph 94% 0.00 in
09:13 44.5 °F 42.9 °F 29.87 in North 8.0 mph 8.0 mph 94% 0.00 in
09:18 44.9 °F 42.7 °F 29.87 in NNW 7.0 mph 11.0 mph 92% 0.00 in
09:23 45.5 °F 43.6 °F 29.87 in NNW 6.0 mph 8.0 mph 93% 0.00 in
09:28 46.1 °F 43.6 °F 29.87 in North 4.0 mph 7.0 mph 91% 0.00 in
09:33 46.6 °F 44.1 °F 29.87 in NE 3.0 mph 7.0 mph 91% 0.00 in
09:38 46.9 °F 43.8 °F 29.87 in NNE 4.0 mph 6.0 mph 89% 0.00 in
09:43 47.4 °F 43.7 °F 29.86 in NNE 3.0 mph 7.0 mph 87% 0.00 in
09:48 48.0 °F 44.3 °F 29.86 in NNE 2.0 mph 6.0 mph 87% 0.00 in
09:53 48.2 °F 43.9 °F 29.86 in North 6.0 mph 9.0 mph 85% 0.00 in
09:54 48.2 °F 43.9 °F 29.86 in NE 4.0 mph 7.0 mph 85% 0.00 in
09:59 48.8 °F 44.5 °F 29.86 in WNW 5.0 mph 6.0 mph 85% 0.00 in
10:04 49.0 °F 44.1 °F 29.86 in NNW 8.0 mph 10.0 mph 83% 0.00 in
10:09 49.4 °F 43.8 °F 29.86 in NNE 4.0 mph 9.0 mph 81% 0.00 in
10:14 49.8 °F 44.5 °F 29.86 in North 7.0 mph 9.0 mph 82% 0.00 in
10:19 50.1 °F 44.5 °F 29.85 in NNW 8.0 mph 9.0 mph 81% 0.00 in
10:24 50.5 °F 45.2 °F 29.86 in NNW 5.0 mph 6.0 mph 82% 0.00 in
10:29 50.7 °F 44.1 °F 29.86 in NW 9.0 mph 10.0 mph 78% 0.00 in
10:34 50.7 °F 43.1 °F 29.87 in NW 11.0 mph 12.0 mph 75% 0.00 in
10:39 51.0 °F 43.7 °F 29.88 in North 8.0 mph 12.0 mph 76% 0.00 in
10:45 51.1 °F 43.8 °F 29.87 in NNW 10.0 mph 13.0 mph 76% 0.00 in
10:50 51.8 °F 43.8 °F 29.87 in North 13.0 mph 13.0 mph 74% 0.00 in
10:55 52.1 °F 43.4 °F 29.87 in NNE 7.0 mph 13.0 mph 72% 0.00 in
11:00 52.2 °F 44.2 °F 29.86 in NNE 4.0 mph 13.0 mph 74% 0.00 in
11:06 52.5 °F 43.8 °F 29.86 in NW 12.0 mph 13.0 mph 72% 0.00 in
11:11 52.6 °F 44.6 °F 29.87 in NNE 8.0 mph 11.0 mph 74% 0.00 in
11:16 52.8 °F 44.0 °F 29.87 in NNW 15.0 mph 15.0 mph 72% 0.00 in
11:21 52.9 °F 43.8 °F 29.87 in WNW 16.0 mph 16.0 mph 71% 0.00 in
11:26 53.3 °F 44.5 °F 29.86 in North 12.0 mph 13.0 mph 72% 0.00 in
11:31 53.5 °F 44.3 °F 29.86 in North 14.0 mph 14.0 mph 71% 0.00 in
11:36 53.9 °F 44.7 °F 29.86 in NW 8.0 mph 9.0 mph 71% 0.00 in
11:41 54.6 °F 44.3 °F 29.86 in NNW 8.0 mph 11.0 mph 68% 0.00 in
11:46 54.9 °F 43.4 °F 29.86 in NNW 8.0 mph 12.0 mph 65% 0.00 in
11:51 54.9 °F 44.2 °F 29.86 in NNE 11.0 mph 15.0 mph 67% 0.00 in
11:56 55.3 °F 44.2 °F 29.86 in NNW 14.0 mph 14.0 mph 66% 0.00 in
12:02 55.1 °F 42.3 °F 29.85 in NW 10.0 mph 15.0 mph 62% 0.00 in
12:07 55.3 °F 43.3 °F 29.85 in NNW 8.0 mph 13.0 mph 64% 0.00 in
12:12 55.4 °F 43.8 °F 29.85 in NNW 10.0 mph 14.0 mph 65% 0.00 in
12:17 55.7 °F 44.5 °F 29.84 in NW 7.0 mph 12.0 mph 66% 0.00 in
12:22 56.3 °F 43.5 °F 29.84 in WNW 8.0 mph 12.0 mph 62% 0.00 in
12:27 56.0 °F 43.2 °F 29.84 in NNW 12.0 mph 15.0 mph 62% 0.00 in
12:32 56.3 °F 45.5 °F 29.84 in NNE 6.0 mph 12.0 mph 67% 0.00 in
12:37 56.7 °F 44.7 °F 29.84 in WNW 4.0 mph 12.0 mph 64% 0.00 in
12:42 57.0 °F 45.0 °F 29.83 in NW 10.0 mph 12.0 mph 64% 0.00 in
12:47 57.1 °F 45.5 °F 29.84 in NNW 5.0 mph 9.0 mph 65% 0.00 in
12:52 57.6 °F 45.9 °F 29.83 in NW 7.0 mph 9.0 mph 65% 0.00 in
12:57 57.7 °F 45.2 °F 29.83 in WNW 8.0 mph 11.0 mph 63% 0.00 in
13:02 58.0 °F 46.3 °F 29.83 in WNW 5.0 mph 8.0 mph 65% 0.00 in
13:08 57.2 °F 42.1 °F 29.83 in NW 3.0 mph 14.0 mph 57% 0.00 in
13:13 57.0 °F 44.5 °F 29.83 in North 7.0 mph 13.0 mph 63% 0.00 in
13:18 57.7 °F 43.9 °F 29.83 in NNW 14.0 mph 16.0 mph 60% 0.00 in
13:23 57.9 °F 43.7 °F 29.83 in NNW 9.0 mph 13.0 mph 59% 0.00 in
13:28 58.2 °F 43.5 °F 29.83 in WNW 8.0 mph 14.0 mph 58% 0.00 in
13:34 58.5 °F 43.8 °F 29.82 in NNW 4.0 mph 11.0 mph 58% 0.00 in
13:39 59.0 °F 46.4 °F 29.82 in NNW 5.0 mph 11.0 mph 63% 0.00 in
13:44 59.0 °F 45.2 °F 29.82 in NNW 6.0 mph 16.0 mph 60% 0.00 in
13:49 59.2 °F 44.5 °F 29.82 in West 3.0 mph 11.0 mph 58% 0.00 in
13:54 59.9 °F 45.1 °F 29.82 in NW 16.0 mph 16.0 mph 58% 0.00 in
13:59 59.5 °F 44.3 °F 29.82 in North 8.0 mph 12.0 mph 57% 0.00 in
14:04 59.6 °F 47.4 °F 29.82 in NW 7.0 mph 8.0 mph 64% 0.00 in
14:09 60.2 °F 44.9 °F 29.82 in WNW 14.0 mph 14.0 mph 57% 0.00 in
14:14 60.3 °F 46.4 °F 29.81 in WNW 9.0 mph 9.0 mph 60% 0.00 in
14:19 60.7 °F 46.3 °F 29.81 in NW 9.0 mph 12.0 mph 59% 0.00 in
14:24 59.9 °F 44.7 °F 29.81 in NW 9.0 mph 13.0 mph 57% 0.00 in
14:29 59.5 °F 45.2 °F 29.81 in WNW 7.0 mph 10.0 mph 59% 0.00 in
14:34 59.2 °F 45.8 °F 29.81 in WNW 10.0 mph 10.0 mph 61% 0.00 in
14:40 59.3 °F 45.9 °F 29.81 in NNE 9.0 mph 9.0 mph 61% 0.00 in
14:45 59.5 °F 45.2 °F 29.81 in North 11.0 mph 12.0 mph 59% 0.00 in
14:50 59.0 °F 44.7 °F 29.81 in NW 3.0 mph 10.0 mph 59% 0.00 in
14:55 59.5 °F 45.2 °F 29.81 in NW 8.0 mph 11.0 mph 59% 0.00 in
15:00 58.8 °F 44.5 °F 29.81 in NNW 5.0 mph 13.0 mph 59% 0.00 in
15:05 58.5 °F 44.7 °F 29.81 in NW 10.0 mph 13.0 mph 60% 0.00 in
15:10 58.6 °F 44.8 °F 29.81 in WNW 9.0 mph 10.0 mph 60% 0.00 in
15:15 58.6 °F 45.2 °F 29.81 in NW 7.0 mph 13.0 mph 61% 0.00 in
15:16 58.7 °F 45.3 °F 29.81 in NW 6.0 mph 13.0 mph 61% 0.00 in
15:21 58.5 °F 43.8 °F 29.81 in North 10.0 mph 14.0 mph 58% 0.00 in
15:26 59.4 °F 45.5 °F 29.81 in WNW 18.0 mph 18.0 mph 60% 0.00 in
15:31 59.3 °F 43.6 °F 29.81 in WNW 11.0 mph 15.0 mph 56% 0.00 in
15:36 59.2 °F 43.5 °F 29.81 in WNW 11.0 mph 18.0 mph 56% 0.00 in
15:41 59.3 °F 43.6 °F 29.81 in WNW 8.0 mph 15.0 mph 56% 0.00 in
15:46 60.1 °F 44.8 °F 29.81 in NNW 5.0 mph 16.0 mph 57% 0.00 in
15:51 59.4 °F 44.2 °F 29.81 in NW 10.0 mph 19.0 mph 57% 0.00 in
15:56 59.7 °F 44.5 °F 29.81 in NW 15.0 mph 20.0 mph 57% 0.00 in
16:01 60.0 °F 43.8 °F 29.80 in NNW 9.0 mph 16.0 mph 55% 0.00 in
16:06 60.6 °F 45.3 °F 29.80 in NNW 15.0 mph 17.0 mph 57% 0.00 in
16:11 60.8 °F 44.1 °F 29.80 in NW 13.0 mph 15.0 mph 54% 0.00 in
16:16 60.8 °F 44.5 °F 29.80 in WNW 15.0 mph 20.0 mph 55% 0.00 in
16:21 60.9 °F 45.1 °F 29.80 in North 19.0 mph 19.0 mph 56% 0.00 in
16:26 61.3 °F 46.0 °F 29.79 in NNW 10.0 mph 12.0 mph 57% 0.00 in
16:31 61.3 °F 46.4 °F 29.79 in NNW 6.0 mph 14.0 mph 58% 0.00 in
16:36 61.0 °F 45.2 °F 29.80 in WNW 15.0 mph 16.0 mph 56% 0.00 in
16:41 59.6 °F 43.9 °F 29.80 in WNW 7.0 mph 19.0 mph 56% 0.00 in
16:47 58.9 °F 43.2 °F 29.80 in WNW 9.0 mph 14.0 mph 56% 0.00 in
16:52 58.6 °F 43.9 °F 29.80 in NW 11.0 mph 17.0 mph 58% 0.00 in
16:57 59.3 °F 44.1 °F 29.80 in NW 7.0 mph 14.0 mph 57% 0.00 in
17:02 60.0 °F 44.7 °F 29.80 in NW 9.0 mph 13.0 mph 57% 0.00 in
17:07 60.5 °F 44.7 °F 29.80 in NW 6.0 mph 16.0 mph 56% 0.00 in
17:12 60.8 °F 46.0 °F 29.80 in NNW 8.0 mph 13.0 mph 58% 0.00 in
17:17 59.3 °F 45.0 °F 29.81 in NNW 9.0 mph 11.0 mph 59% 0.00 in
17:22 58.3 °F 44.5 °F 29.80 in NNW 4.0 mph 14.0 mph 60% 0.00 in
17:27 58.0 °F 44.2 °F 29.81 in NW 10.0 mph 13.0 mph 60% 0.00 in
17:32 57.6 °F 44.3 °F 29.81 in North 13.0 mph 16.0 mph 61% 0.00 in
17:37 54.9 °F 46.4 °F 29.82 in NNW 9.0 mph 17.0 mph 73% 1.10 in
17:42 52.9 °F 45.9 °F 29.82 in NNE 4.0 mph 14.0 mph 77% 0.22 in
17:47 52.7 °F 46.7 °F 29.82 in NNW 7.0 mph 8.0 mph 80% 0.07 in
17:52 52.9 °F 45.9 °F 29.82 in NNW 8.0 mph 11.0 mph 77% 0.04 in
17:57 53.2 °F 46.2 °F 29.82 in NNE 6.0 mph 10.0 mph 77% 0.00 in
18:02 53.0 °F 45.7 °F 29.82 in NNE 11.0 mph 11.0 mph 76% 0.00 in
18:08 53.1 °F 45.4 °F 29.82 in North 6.0 mph 10.0 mph 75% 0.00 in
18:13 53.2 °F 45.5 °F 29.82 in NW 6.0 mph 11.0 mph 75% 0.00 in
18:18 53.3 °F 45.6 °F 29.83 in NW 2.0 mph 5.0 mph 75% 0.00 in
18:23 53.4 °F 45.3 °F 29.83 in NNW 5.0 mph 7.0 mph 74% 0.00 in
18:28 53.5 °F 45.4 °F 29.83 in NNW 8.0 mph 11.0 mph 74% 0.00 in
18:33 53.2 °F 45.1 °F 29.83 in North 9.0 mph 10.0 mph 74% 0.00 in
18:38 53.1 °F 45.4 °F 29.83 in NW 6.0 mph 9.0 mph 75% 0.00 in
18:43 53.1 °F 45.0 °F 29.83 in NNW 5.0 mph 10.0 mph 74% 0.00 in
18:48 53.0 °F 45.0 °F 29.83 in WNW 6.0 mph 9.0 mph 74% 0.00 in
18:53 53.2 °F 45.1 °F 29.84 in NW 5.0 mph 7.0 mph 74% 0.00 in
18:58 53.2 °F 45.1 °F 29.84 in NW 4.0 mph 7.0 mph 74% 0.00 in
19:03 53.5 °F 45.1 °F 29.84 in NW 3.0 mph 6.0 mph 73% 0.00 in
19:08 53.6 °F 45.2 °F 29.84 in North 7.0 mph 8.0 mph 73% 0.00 in
19:13 53.8 °F 45.4 °F 29.85 in WNW 8.0 mph 8.0 mph 73% 0.00 in
19:18 53.9 °F 44.3 °F 29.85 in NNW 9.0 mph 12.0 mph 70% 0.00 in
19:23 53.9 °F 44.7 °F 29.85 in WNW 9.0 mph 12.0 mph 71% 0.00 in
19:28 53.8 °F 44.6 °F 29.85 in NW 8.0 mph 8.0 mph 71% 0.00 in
19:33 53.6 °F 44.8 °F 29.85 in NNW 4.0 mph 7.0 mph 72% 0.00 in
19:39 53.1 °F 44.3 °F 29.85 in NNW 8.0 mph 8.0 mph 72% 0.00 in
19:44 52.8 °F 44.0 °F 29.85 in NW 5.0 mph 9.0 mph 72% 0.00 in
19:49 52.7 °F 44.3 °F 29.85 in NNW 5.0 mph 7.0 mph 73% 0.00 in
19:55 52.8 °F 44.4 °F 29.85 in NNW 4.0 mph 10.0 mph 73% 0.00 in
19:56 52.7 °F 43.9 °F 29.85 in NNW 6.0 mph 10.0 mph 72% 0.00 in
20:01 52.6 °F 43.8 °F 29.86 in NW 4.0 mph 13.0 mph 72% 0.00 in
20:06 52.4 °F 43.3 °F 29.86 in NNW 4.0 mph 13.0 mph 71% 0.00 in
20:11 52.1 °F 43.4 °F 29.86 in NNW 7.0 mph 9.0 mph 72% 0.00 in
20:16 51.8 °F 43.1 °F 29.86 in NNW 6.0 mph 7.0 mph 72% 0.00 in
20:21 51.5 °F 42.8 °F 29.86 in North 6.0 mph 9.0 mph 72% 0.00 in
20:22 51.5 °F 42.8 °F 29.86 in NNW 6.0 mph 9.0 mph 72% 0.00 in
20:27 51.3 °F 42.6 °F 29.86 in NW 4.0 mph 11.0 mph 72% 0.00 in
20:32 51.1 °F 42.0 °F 29.86 in NW 6.0 mph 11.0 mph 71% 0.00 in
20:37 51.0 °F 41.9 °F 29.87 in NNE 4.0 mph 10.0 mph 71% 0.00 in
20:42 50.8 °F 42.1 °F 29.87 in NW 3.0 mph 7.0 mph 72% 0.00 in
20:47 50.5 °F 41.5 °F 29.87 in NW 5.0 mph 8.0 mph 71% 0.00 in
20:53 50.4 °F 41.7 °F 29.87 in NNW 5.0 mph 7.0 mph 72% 0.00 in
20:58 50.1 °F 41.4 °F 29.87 in NW 6.0 mph 6.0 mph 72% 0.00 in
21:03 49.9 °F 41.6 °F 29.87 in NW 2.0 mph 5.0 mph 73% 0.00 in
21:08 49.9 °F 41.6 °F 29.88 in NW 5.0 mph 5.0 mph 73% 0.00 in
21:13 49.9 °F 41.6 °F 29.88 in NW 4.0 mph 6.0 mph 73% 0.00 in
21:18 49.7 °F 41.4 °F 29.88 in NW 5.0 mph 5.0 mph 73% 0.00 in
21:23 49.6 °F 41.3 °F 29.88 in NW 3.0 mph 5.0 mph 73% 0.00 in
21:28 49.6 °F 41.3 °F 29.89 in NW 4.0 mph 7.0 mph 73% 0.00 in
21:33 49.2 °F 41.3 °F 29.89 in NW 2.0 mph 4.0 mph 74% 0.00 in
21:38 49.0 °F 41.4 °F 29.89 in WNW 3.0 mph 5.0 mph 75% 0.00 in
21:43 48.8 °F 41.2 °F 29.89 in NW 3.0 mph 5.0 mph 75% 0.00 in
21:48 48.7 °F 41.1 °F 29.90 in NNW 3.0 mph 4.0 mph 75% 0.00 in
21:53 48.5 °F 41.3 °F 29.90 in NW 5.0 mph 5.0 mph 76% 0.00 in
21:58 48.3 °F 41.1 °F 29.90 in NW 2.0 mph 3.0 mph 76% 0.00 in
22:03 48.2 °F 41.3 °F 29.90 in WNW 2.0 mph 4.0 mph 77% 0.00 in
22:08 48.1 °F 41.2 °F 29.90 in NW 3.0 mph 4.0 mph 77% 0.00 in
22:13 48.1 °F 41.2 °F 29.90 in NW 1.0 mph 3.0 mph 77% 0.00 in
22:18 48.1 °F 41.2 °F 29.91 in WNW 3.0 mph 4.0 mph 77% 0.00 in
22:24 48.1 °F 41.2 °F 29.90 in WNW 4.0 mph 4.0 mph 77% 0.00 in
22:29 48.1 °F 41.2 °F 29.91 in WNW 2.0 mph 5.0 mph 77% 0.00 in
22:34 48.2 °F 41.3 °F 29.91 in WNW 3.0 mph 5.0 mph 77% 0.00 in
22:39 48.3 °F 41.4 °F 29.91 in NW 3.0 mph 5.0 mph 77% 0.00 in
22:44 48.4 °F 41.5 °F 29.91 in WNW 3.0 mph 5.0 mph 77% 0.00 in
22:49 48.5 °F 41.6 °F 29.91 in WNW 3.0 mph 4.0 mph 77% 0.00 in
22:54 48.6 °F 41.7 °F 29.91 in NW 4.0 mph 6.0 mph 77% 0.00 in
22:59 48.7 °F 41.8 °F 29.91 in WNW 5.0 mph 6.0 mph 77% 0.00 in
23:04 48.8 °F 41.9 °F 29.91 in NW 3.0 mph 6.0 mph 77% 0.00 in
23:09 48.9 °F 42.0 °F 29.91 in West 6.0 mph 7.0 mph 77% 0.00 in
23:14 48.9 °F 42.0 °F 29.92 in NNW 6.0 mph 6.0 mph 77% 0.00 in
23:19 48.8 °F 42.3 °F 29.92 in North 7.0 mph 9.0 mph 78% 0.00 in
23:24 48.2 °F 42.7 °F 29.92 in NW 4.0 mph 7.0 mph 81% 0.00 in
23:29 47.7 °F 42.8 °F 29.92 in WNW 4.0 mph 8.0 mph 83% 0.00 in
23:34 47.4 °F 42.8 °F 29.91 in WNW 2.0 mph 6.0 mph 84% 0.00 in
23:39 47.1 °F 42.8 °F 29.91 in NW 3.0 mph 6.0 mph 85% 0.00 in
23:44 46.9 °F 42.9 °F 29.91 in WNW 2.0 mph 7.0 mph 86% 0.00 in
23:49 46.7 °F 43.0 °F 29.91 in WNW 4.0 mph 4.0 mph 87% 0.00 in
23:54 46.5 °F 43.1 °F 29.91 in NW 2.0 mph 5.0 mph 88% 0.00 in
Compliments of Weather Underground